Location: Joplin, MO
(37.0842°N, 94.5133°W)
Time: 21:25:19
(UTC+02:00)

Transit 2A Rocket - Pass Details

Date: 03 April 2023
Orbit: 584 x 914 km, 66.7° (Epoch: 09 June)

Event Time Altitude Azimuth Distance (km) Brightness Sun altitude
Rises 02:41:08 0° 332° (NNW) 3,547 9.0 -0.8°
Reaches altitude 10° 02:43:42 10° 332° (NNW) 2,588 8.3 -1.3°
Maximum altitude 02:49:46 90° 172° (S) 877 5.4 -2.5°
Drops below altitude 10° 02:55:26 10° 154° (SSE) 2,420 7.3 -3.6°
Sets 02:57:46 0° 154° (SSE) 3,303 7.9 -4.1°
